EDT,Max TemperatureF,Mean TemperatureF,Min TemperatureF,Max Dew PointF,MeanDew PointF,Min DewpointF,Max Humidity, Mean Humidity, Min Humidity, Max Sea Level PressureIn, Mean Sea Level PressureIn, Min Sea Level PressureIn, Max VisibilityMiles, Mean VisibilityMiles, Min VisibilityMiles, Max Wind SpeedMPH, Mean Wind SpeedMPH, Max Gust SpeedMPH,PrecipitationIn, CloudCover, Events, WindDirDegrees
2013-3-1,52,42,31,30,28,27,85,62,38,30.03,29.99,29.93,10,10,7,17,8,21,0.00,2,,300
2013-3-2,43,37,30,31,27,25,92,73,53,30.04,30.00,29.97,10,10,10,18,9,24,0.00,5,,290
2013-3-3,46,38,29,28,22,18,92,62,31,30.11,30.06,30.02,10,10,10,20,9,25,0.00,4,,298
2013-3-4,60,42,24,33,24,18,88,56,24,30.22,30.14,30.07,10,10,10,12,4,15,0.00,0,,260
2013-3-5,70,56,41,57,46,29,84,66,48,30.09,29.95,29.72,10,10,5,26,12,39,0.11,5,Rain,234
2013-3-6,49,42,35,30,25,18,76,58,39,30.17,30.07,29.94,10,10,10,25,13,37,0.00,2,,311
2013-3-7,62,44,26,35,30,25,92,62,32,30.27,30.22,30.17,10,10,5,10,4,16,0.00,0,,295
2013-3-8,65,47,29,39,31,27,92,58,24,30.32,30.25,30.21,10,10,6,12,4,17,0.00,0,,2
2013-3-9,65,48,30,39,33,29,100,64,27,30.34,30.26,30.22,10,9,4,10,2,15,0.00,0,,118
2013-3-10,73,59,44,52,43,34,80,59,37,30.23,30.16,30.09,10,10,10,15,7,22,0.00,0,,141
2013-3-11,69,60,50,61,54,49,100,80,59,30.11,29.94,29.82,10,8,2,22,8,29,0.68,5,Rain,165
2013-3-12,68,55,42,61,44,29,100,63,26,30.09,29.91,29.79,10,8,2,17,9,23,0.16,5,Rain,298
2013-3-13,64,51,37,34,27,16,85,51,17,30.23,30.16,30.10,10,10,10,26,10,35,0.00,0,,300
2013-3-14,59,45,31,29,20,16,63,41,19,30.38,30.28,30.23,10,10,9,20,7,28,0.00,0,,318
2013-3-15,74,53,31,41,33,26,89,57,25,30.26,30.17,30.04,10,9,4,20,7,24,0.00,0,,250
2013-3-16,77,63,48,48,41,36,80,51,22,30.08,30.01,29.92,10,10,10,24,10,33,0.00,0,,240
2013-3-17,72,60,47,59,53,46,100,77,53,30.07,30.01,29.95,10,9,2,15,7,22,0.00,3,,226
2013-3-18,75,64,52,63,57,52,100,82,64,30.03,29.95,29.76,10,7,1,41,6,60,1.08,7,Rain-Thunderstorm,159
2013-3-19,74,61,47,55,41,21,100,57,14,30.05,29.98,29.87,10,10,9,16,7,23,0.00,2,,328
2013-3-20,63,50,37,39,28,21,85,53,20,30.14,30.02,29.92,10,10,10,14,5,23,0.00,1,,315
2013-3-21,56,45,34,31,22,10,70,43,16,29.99,29.94,29.91,10,10,10,17,7,25,0.00,0,,299
2013-3-22,53,46,38,45,35,22,92,68,43,30.10,30.04,29.97,10,10,10,16,3,22,0.04,7,Rain,81
2013-3-23,62,54,46,54,47,41,100,84,67,30.05,29.92,29.82,10,8,2,20,7,24,0.73,8,Rain-Thunderstorm,94
2013-3-24,63,56,49,54,51,38,100,77,54,29.77,29.62,29.56,10,8,2,30,9,37,0.99,7,Rain,27
2013-3-25,54,46,37,35,25,20,62,44,26,30.09,29.88,29.72,10,10,10,26,14,38,0.00,3,,300
2013-3-26,48,40,31,26,23,21,78,58,38,30.28,30.17,30.09,10,10,10,22,12,31,0.00,4,,307
2013-3-27,59,43,27,32,24,20,85,54,23,30.36,30.29,30.24,10,10,10,15,7,21,0.00,0,,300
2013-3-28,67,49,30,34,28,22,92,56,19,30.36,30.29,30.22,10,10,10,18,5,23,0.00,0,,315
2013-3-29,70,51,31,42,35,28,96,60,23,30.35,30.27,30.18,10,10,10,13,2,16,0.00,1,,198
2013-3-30,76,65,53,49,44,37,61,49,36,30.19,30.12,30.04,10,10,10,14,7,21,0.00,5,,230
2013-3-31,80,69,58,60,54,48,81,60,39,30.04,29.97,29.86,10,10,10,21,10,28,T,7,Rain,233